{"data":{"norad_id":64566,"intl_designator":"2025-135AQ","name":"ARVAKER-3","alt_names":[],"object_type":"PAYLOAD","status":"ACTIVE","operator":null,"country":"NOR","launch_date":"2025-06-23","launch_site_code":"AFWTR","launch_vehicle":null,"mission":null,"orbit_class":"UNKNOWN","rcs_meters":null,"size_class":null,"mass_kg":null,"dimensions":null,"purposes":[],"wikipedia_slug":null,"has_3d_model":false,"image_url":null,"decayed_at":null,"tle_current":{"epoch":"2026-05-25T05:53:30.462144Z","epoch_age_seconds":50677,"freshness":"FRESH","line1":"1 64566U 25135AQ  26145.24549146  .00001798  00000+0  17622-3 0  9991","line2":"2 64566  97.7701 259.6327 0002582  54.1922 305.9538 14.93503980 50453","mean_motion":14.9350398,"eccentricity":0.0002582,"inclination_deg":97.7701,"raan_deg":259.6327,"arg_perigee_deg":54.1922,"mean_anomaly_deg":305.9538,"bstar":0.00017622,"rev_number":5045,"period_min":96.417553570898,"perigee_km":585.22172900034,"apogee_km":588.8185361436,"semimajor_km":6965.157132572,"source":"CELESTRAK","updated_at":"2026-05-25T13:38:04.618949Z"}}}